Location: Newark
(33.6333°S, 78.8500°W)
Time: 07:14:29
(UTC+00:00)

Tiros 1 despin weight - Pass Details

Date: 26 September 2019
Orbit: 593 x 643 km, 48.2° (Epoch: 22 October)

Event Time Altitude Azimuth Distance (km) Brightness Sun altitude
Rises 01:32:00 0° 339° (NNW) 2,824 - -28.8°
Reaches altitude 10° 01:34:33 10° 352° (N) 1,935 - -29.3°
Maximum altitude 01:38:14 26° 48° (NE) 1,210 - -30.0°
Drops below altitude 10° 01:41:59 10° 104° (ESE) 1,976 - -30.7°
Sets 01:44:37 0° 116° (ESE) 2,897 - -31.2°
